Langdon, ND

11:57 AM CDT on May 24, 2017 (GMT -0500)
Langdon

Weather History for KD55 - August, 2013

Change the Weather History Date:

Wednesday, August 7, 2013

  Actual Average (KDVL) Record (KDVL)
Temperature  
Mean Temperature 52 °F -  
Max Temperature 64 °F 81 °F 103 °F (1949)
Min Temperature 41 °F 57 °F 43 °F (1967)
Degree Days  
Heating Degree Days 12    
Growing Degree Days 2 (Base 50)    
Moisture  
Dew Point 40 °F    
Average Humidity 59    
Maximum Humidity 100    
Minimum Humidity 52    
Precipitation  
Precipitation 0.00 in - - ()
Sea Level Pressure  
Sea Level Pressure 30.01 in    
Wind  
Wind Speed 3 mph (NE)    
Max Wind Speed 14 mph    
Max Gust Speed 20 mph    
Visibility 10 miles    
Events Rain    
Averages and records for this station are not official NWS values.
T = Trace of Precipitation, MM = Missing Value Source: NWS Daily Summary

Daily Weather History Graph

Daily Weather History Graph

Search for Another Location

Airport or City:

Trip Planner

Search our weather history database for the weather conditions in past years. The results will help you decide how hot, cold, wet, or windy it might be!

Date:

Astronomy

Aug. 07, 2013 Rise Set
Actual Time 6:15 AM CDT 9:01 PM CDT
Civil Twilight 5:39 AM CDT 9:37 PM CDT
Nautical Twilight 4:53 AM CDT 10:23 PM CDT
Astronomical Twilight 3:58 AM CDT 11:18 PM CDT
Moon 7:15 AM CDT (8/7) 8:57 PM CDT (8/7)
Length of Visible Light 15h 58m
Length of Day
14h 46m
New Moon, 1% of the Moon is Illuminated
Aug 7
New Moon
Aug 14
First Quarter
Aug 20
Full
Aug 28
Last Quarter
Sep 5
New

Hourly Weather History & Observations

Time (CDT) Temp. Windchill Dew Point Humidity Pressure Visibility Wind Dir Wind Speed Gust Speed Precip Events Conditions
12:15 AM 48.2 °F - 32.0 °F 54% 29.95 in 10.0 mi Calm Calm - N/A   Clear
12:35 AM 48.2 °F - 33.8 °F 58% 29.95 in 10.0 mi Calm Calm - N/A   Clear
12:55 AM 48.2 °F - 32.0 °F 54% 29.95 in 10.0 mi NNW 4.6 mph - N/A   Partly Cloudy
1:15 AM 48.2 °F - 33.8 °F 58% 29.96 in 10.0 mi Calm Calm - N/A   Scattered Clouds
1:35 AM 48.2 °F - 33.8 °F 58% 29.96 in 10.0 mi North 3.5 mph - N/A   Scattered Clouds
1:55 AM 48.2 °F - 32.0 °F 54% 29.96 in 10.0 mi Calm Calm - N/A   Clear
2:15 AM 46.4 °F - 32.0 °F 57% 29.97 in 10.0 mi Calm Calm - N/A   Partly Cloudy
2:35 AM 46.4 °F - 32.0 °F 57% 29.97 in 10.0 mi Calm Calm - N/A   Partly Cloudy
2:55 AM 44.6 °F - 44.6 °F 100% 29.97 in 10.0 mi Calm Calm - N/A   Clear
3:15 AM 44.6 °F - 41.0 °F 87% 29.97 in 10.0 mi Calm Calm - N/A   Clear
3:35 AM 44.6 °F - 39.2 °F 81% 29.97 in 10.0 mi Calm Calm - N/A   Clear
3:55 AM 44.6 °F - 37.4 °F 76% 29.98 in 10.0 mi Calm Calm - N/A   Clear
4:15 AM 44.6 °F 43.1 °F 39.2 °F 81% 29.99 in 10.0 mi NNW 3.5 mph - N/A   Clear
4:35 AM 44.6 °F 42.2 °F 35.6 °F 71% 29.99 in 10.0 mi NNW 4.6 mph - N/A   Mostly Cloudy
4:55 AM 46.4 °F 45.2 °F 39.2 °F 76% 29.99 in 10.0 mi North 3.5 mph - N/A   Overcast
5:15 AM 46.4 °F - 32.0 °F 57% 29.99 in 10.0 mi Calm Calm - N/A   Scattered Clouds
5:35 AM 46.4 °F 45.2 °F 32.0 °F 57% 29.99 in 10.0 mi North 3.5 mph - N/A   Clear
5:55 AM 44.6 °F - 32.0 °F 61% 30.00 in 10.0 mi Calm Calm - N/A   Clear
6:15 AM 42.8 °F - 37.4 °F 81% 30.00 in 10.0 mi Calm Calm - N/A   Clear
6:35 AM 41.0 °F - 33.8 °F 76% 30.00 in 10.0 mi Calm Calm - N/A   Partly Cloudy
6:55 AM 42.8 °F - 35.6 °F 76% 30.00 in 9.0 mi Calm Calm - N/A   Mostly Cloudy
7:15 AM 46.4 °F - 32.0 °F 57% 30.00 in 10.0 mi Calm Calm - N/A   Overcast
7:35 AM 50.0 °F - 35.6 °F 58% 30.01 in 10.0 mi Calm Calm - N/A   Mostly Cloudy
7:55 AM 50.0 °F - 35.6 °F 58% 30.01 in 10.0 mi ENE 8.1 mph - N/A   Mostly Cloudy
8:15 AM 50.0 °F - 35.6 °F 58% 30.02 in 10.0 mi East 4.6 mph - N/A   Overcast
8:35 AM 50.0 °F - 35.6 °F 58% 30.02 in 8.0 mi SE 4.6 mph - N/A   Overcast
8:55 AM 50.0 °F - 35.6 °F 58% 30.02 in 7.0 mi East 5.8 mph - N/A Rain Light Rain
9:15 AM 50.0 °F - 35.6 °F 58% 30.02 in 10.0 mi ESE 5.8 mph - N/A   Overcast
9:35 AM 51.8 °F - 35.6 °F 54% 30.02 in 10.0 mi East 6.9 mph - N/A   Overcast
9:55 AM 53.6 °F - 37.4 °F 54% 30.02 in 10.0 mi East 8.1 mph - N/A   Mostly Cloudy
10:15 AM 53.6 °F - 39.2 °F 58% 30.02 in 10.0 mi ESE 6.9 mph - N/A   Mostly Cloudy
10:35 AM 55.4 °F - 39.2 °F 54% 30.02 in 10.0 mi ESE 6.9 mph - N/A   Scattered Clouds
10:55 AM 57.2 °F - 41.0 °F 55% 30.02 in 10.0 mi ESE 8.1 mph - N/A   Mostly Cloudy
11:15 AM 57.2 °F - 41.0 °F 55% 30.02 in 10.0 mi SSE 4.6 mph - N/A   Mostly Cloudy
11:35 AM 59.0 °F - 42.8 °F 55% 30.02 in 10.0 mi SE 5.8 mph - N/A   Partly Cloudy
11:55 AM 60.8 °F - 44.6 °F 55% 30.02 in 10.0 mi South 3.5 mph - N/A   Clear
12:15 PM 60.8 °F - 44.6 °F 55% 30.02 in 10.0 mi Calm Calm - N/A   Partly Cloudy
12:35 PM 64.4 °F - 46.4 °F 52% 30.02 in 10.0 mi Calm Calm - N/A   Scattered Clouds
12:55 PM 62.6 °F - 46.4 °F 55% 30.02 in 10.0 mi ENE 3.5 mph - N/A   Mostly Cloudy
1:15 PM 62.6 °F - 46.4 °F 55% 30.02 in 10.0 mi NNW 8.1 mph - N/A   Overcast
1:35 PM 62.6 °F - 46.4 °F 55% 30.02 in 10.0 mi Calm Calm - N/A   Scattered Clouds
1:55 PM 64.4 °F - 46.4 °F 52% 30.02 in 10.0 mi North 3.5 mph - N/A   Scattered Clouds
2:15 PM 64.4 °F - 48.2 °F 56% 30.01 in 10.0 mi NNE 3.5 mph - N/A   Scattered Clouds
2:35 PM 64.4 °F - 48.2 °F 56% 30.01 in 10.0 mi WNW 3.5 mph - N/A   Scattered Clouds
2:55 PM 62.6 °F - 46.4 °F 55% 30.02 in 10.0 mi North 8.1 mph - N/A   Mostly Cloudy
3:15 PM 62.6 °F - 46.4 °F 55% 30.02 in 10.0 mi NNE 5.8 mph - N/A   Overcast
3:35 PM 64.4 °F - 48.2 °F 56% 30.01 in 10.0 mi North 13.8 mph 19.6 mph N/A   Mostly Cloudy
3:55 PM 64.4 °F - 48.2 °F 56% 30.02 in 10.0 mi North 8.1 mph - N/A   Scattered Clouds
4:15 PM 64.4 °F - 46.4 °F 52% 30.02 in 10.0 mi North 8.1 mph - N/A   Partly Cloudy
4:35 PM 62.6 °F - 46.4 °F 55% 30.02 in 10.0 mi NNE 4.6 mph - N/A   Mostly Cloudy
4:55 PM 62.6 °F - 46.4 °F 55% 30.02 in 10.0 mi North 8.1 mph - N/A   Mostly Cloudy
5:15 PM 62.6 °F - 46.4 °F 55% 30.02 in 10.0 mi North 5.8 mph - N/A   Mostly Cloudy
5:35 PM 62.6 °F - 46.4 °F 55% 30.02 in 10.0 mi NNW 4.6 mph - N/A   Mostly Cloudy
5:55 PM 62.6 °F - 46.4 °F 55% 30.02 in 10.0 mi North 4.6 mph - N/A   Overcast
6:15 PM 62.6 °F - 46.4 °F 55% 30.02 in 10.0 mi North 5.8 mph - N/A   Overcast
6:35 PM 62.6 °F - 46.4 °F 55% 30.02 in 10.0 mi North 6.9 mph - N/A   Mostly Cloudy
6:55 PM 60.8 °F - 44.6 °F 55% 30.02 in 10.0 mi North 6.9 mph - N/A   Mostly Cloudy
7:15 PM 59.0 °F - 44.6 °F 59% 30.02 in 10.0 mi North 5.8 mph - N/A   Mostly Cloudy
7:35 PM 59.0 °F - 44.6 °F 59% 30.02 in 10.0 mi North 5.8 mph - N/A   Scattered Clouds
7:55 PM 59.0 °F - 42.8 °F 55% 30.02 in 10.0 mi NNE 6.9 mph - N/A   Partly Cloudy
8:15 PM 57.2 °F - 41.0 °F 55% 30.02 in 10.0 mi NE 6.9 mph - N/A   Clear
8:35 PM 57.2 °F - 41.0 °F 55% 30.02 in 10.0 mi ENE 5.8 mph - N/A   Clear
8:55 PM 55.4 °F - 39.2 °F 54% 30.03 in 10.0 mi East 4.6 mph - N/A   Scattered Clouds
9:15 PM 53.6 °F - 39.2 °F 58% 30.03 in 10.0 mi ENE 5.8 mph - N/A   Mostly Cloudy
9:35 PM 53.6 °F - 37.4 °F 54% 30.04 in 10.0 mi ESE 3.5 mph - N/A   Partly Cloudy
9:55 PM 51.8 °F - 35.6 °F 54% 30.04 in 10.0 mi Calm Calm - N/A Rain Light Rain
10:15 PM 53.6 °F - 37.4 °F 54% 30.05 in 10.0 mi East 4.6 mph - N/A Rain Light Rain
10:35 PM 50.0 °F - 33.8 °F 54% 30.05 in 10.0 mi East 3.5 mph - N/A   Clear
10:55 PM 48.2 °F - 32.0 °F 54% 30.05 in 10.0 mi ESE 3.5 mph - N/A   Clear
11:15 PM 48.2 °F - 32.0 °F 54% 30.06 in 10.0 mi ESE 3.5 mph - N/A   Clear
11:35 PM 46.4 °F 45.2 °F 32.0 °F 57% 30.06 in 10.0 mi SE 3.5 mph - N/A   Clear
11:55 PM 46.4 °F 45.2 °F 32.0 °F 57% 30.05 in 10.0 mi South 3.5 mph - N/A   Clear